When you browse on this site, cookies collect data to enhance your experience and personalize the content and advertising you see.
Visit our Privacy Policy to learn more. By continuing to use the site, you agree to this use of cookies and data.
  • In Sweden
  • List of Countries
  • For 7 days
  • Water Temperature
  • Weather Map
  • Weather Widgets
  • user-avatar
    Login

    Hourly Weather Basarabeasca

    Today, 22 February, Saturday

    Time Temperature Precipitation Wind Pressure Humidity
    00:00 +5°C° 0 mm 1 mps 760 mmHg 68%
    01:00 +4°C° 0 mm 1 mps 760 mmHg 69%
    02:00 +3°C° 0 mm 0 mps 760 mmHg 73%
    03:00 +3°C° 0 mm 0 mps 761 mmHg 73%
    04:00 +3°C° 0 mm 1 mps 761 mmHg 73%
    05:00 +3°C° 0 mm 1 mps 761 mmHg 72%
    06:00 +3°C° 0 mm 1 mps 762 mmHg 72%
    07:00 +2°C° 0 mm 2 mps 762 mmHg 72%
    08:00 +2°C° 0 mm 2 mps 763 mmHg 72%
    09:00 +3°C° 0 mm 2 mps 763 mmHg 68%
    10:00 +4°C° 0 mm 3 mps 763 mmHg 63%
    11:00 +5°C° 0 mm 3 mps 764 mmHg 59%
    12:00 +7°C° 0 mm 3 mps 764 mmHg 56%
    13:00 +7°C° 0 mm 3 mps 764 mmHg 54%
    14:00 +7°C° 0 mm 4 mps 764 mmHg 51%
    15:00 +7°C° 0 mm 4 mps 763 mmHg 52%
    16:00 +8°C° 0 mm 3 mps 763 mmHg 53%
    17:00 +7°C° 0 mm 3 mps 763 mmHg 54%
    18:00 +5°C° 0 mm 3 mps 763 mmHg 59%
    19:00 +6°C° 0 mm 2 mps 763 mmHg 64%
    20:00 +5°C° 0 mm 2 mps 763 mmHg 69%
    21:00 +4°C° 0 mm 2 mps 763 mmHg 71%
    22:00 +4°C° 0 mm 2 mps 763 mmHg 72%
    23:00 +4°C° 0 mm 2 mps 762 mmHg 74%

    Tomorrow, 23 February, Sunday

    Time Temperature Precipitation Wind Pressure Humidity
    00:00 +2°C° 0 mm 3 mps 762 mmHg 74%
    01:00 +2°C° 0 mm 3 mps 762 mmHg 75%
    02:00 +1°C° 0 mm 4 mps 761 mmHg 75%
    03:00 +1°C° 0 mm 4 mps 761 mmHg 76%
    04:00 +1°C° 0 mm 4 mps 760 mmHg 77%
    05:00 +1°C° 0 mm 4 mps 759 mmHg 78%
    06:00 +1°C° 0 mm 4 mps 759 mmHg 77%
    07:00 +1°C° 0 mm 5 mps 759 mmHg 76%
    08:00 +1°C° 0 mm 5 mps 758 mmHg 76%
    09:00 +3°C° 0 mm 4 mps 758 mmHg 69%
    10:00 +5°C° 0 mm 4 mps 758 mmHg 62%
    11:00 +7°C° 0 mm 3 mps 757 mmHg 55%
    12:00 +7°C° 0 mm 4 mps 757 mmHg 51%
    13:00 +10°C° 0 mm 4 mps 757 mmHg 46%
    14:00 +11°C° 0 mm 4 mps 756 mmHg 42%
    15:00 +11°C° 0 mm 3 mps 756 mmHg 45%
    16:00 +11°C° 0 mm 3 mps 755 mmHg 49%
    17:00 +10°C° 0 mm 2 mps 754 mmHg 52%
    18:00 +10°C° 0 mm 2 mps 754 mmHg 55%
    19:00 +9°C° 0 mm 3 mps 754 mmHg 57%
    20:00 +8°C° 0 mm 3 mps 754 mmHg 59%
    21:00 +7°C° 0 mm 4 mps 753 mmHg 61%
    22:00 +7°C° 0 mm 4 mps 752 mmHg 63%
    23:00 +7°C° 0 mm 5 mps 751 mmHg 65%

    Day after tomorrow, 24 February, Monday

    Time Temperature Precipitation Wind Pressure Humidity
    00:00 +7°C° 0 mm 6 mps 750 mmHg 65%
    01:00 +6°C° 0 mm 7 mps 749 mmHg 64%
    02:00 +6°C° 0 mm 7 mps 748 mmHg 64%
    03:00 +7°C° 0.1 mm 8 mps 747 mmHg 64%
    04:00 +7°C° 0.1 mm 9 mps 746 mmHg 64%
    05:00 +7°C° 0.1 mm 9 mps 745 mmHg 63%
    06:00 +8°C° 0.1 mm 10 mps 744 mmHg 63%
    07:00 +8°C° 0.1 mm 11 mps 744 mmHg 62%
    08:00 +8°C° 0.1 mm 11 mps 744 mmHg 62%
    09:00 +7°C° 0 mm 13 mps 745 mmHg 57%
    10:00 +6°C° 0 mm 14 mps 746 mmHg 53%
    11:00 +5°C° 0 mm 15 mps 747 mmHg 48%
    12:00 +5°C° 0 mm 15 mps 748 mmHg 46%
    13:00 +5°C° 0 mm 15 mps 749 mmHg 45%
    14:00 +5°C° 0 mm 15 mps 750 mmHg 43%
    15:00 +5°C° 0 mm 14 mps 751 mmHg 45%
    16:00 +4°C° 0 mm 13 mps 752 mmHg 48%
    17:00 +4°C° 0 mm 13 mps 752 mmHg 50%
    18:00 +3°C° 0 mm 11 mps 754 mmHg 53%
    19:00 +2°C° 0 mm 10 mps 755 mmHg 56%
    20:00 +2°C° 0 mm 8 mps 756 mmHg 59%
    21:00 +2°C° 0 mm 7 mps 757 mmHg 62%
    22:00 +2°C° 0 mm 6 mps 757 mmHg 65%
    23:00 +2°C° 0 mm 5 mps 758 mmHg 68%

    25 February, Tuesday

    Time Temperature Precipitation Wind Pressure Humidity
    00:00 +1°C° 0 mm 4 mps 758 mmHg 71%
    01:00 +1°C° 0 mm 4 mps 758 mmHg 73%
    02:00 +1°C° 0 mm 3 mps 759 mmHg 76%
    03:00 +2°C° 0 mm 2 mps 758 mmHg 76%
    04:00 +2°C° 0 mm 2 mps 758 mmHg 76%
    05:00 +2°C° 0 mm 1 mps 758 mmHg 76%
    06:00 +1°C° 0 mm 3 mps 758 mmHg 73%
    07:00 0°C° 0 mm 4 mps 758 mmHg 70%
    08:00 -1°C° 0 mm 6 mps 758 mmHg 67%
    09:00 +2°C° 0 mm 7 mps 757 mmHg 60%
    10:00 +4°C° 0 mm 8 mps 756 mmHg 52%
    11:00 +6°C° 0 mm 9 mps 756 mmHg 45%
    12:00 +7°C° 0 mm 9 mps 755 mmHg 43%
    13:00 +8°C° 0 mm 10 mps 754 mmHg 41%
    14:00 +9°C° 0 mm 10 mps 754 mmHg 38%
    15:00 +10°C° 0 mm 9 mps 753 mmHg 39%
    16:00 +10°C° 0 mm 8 mps 752 mmHg 39%
    17:00 +10°C° 0 mm 8 mps 751 mmHg 39%
    18:00 +9°C° 0 mm 7 mps 751 mmHg 41%
    19:00 +8°C° 0 mm 7 mps 751 mmHg 44%
    20:00 +6°C° 0 mm 7 mps 751 mmHg 47%
    21:00 +6°C° 0 mm 7 mps 750 mmHg 51%
    22:00 +6°C° 0 mm 7 mps 750 mmHg 56%
    23:00 +5°C° 0 mm 7 mps 749 mmHg 60%

    26 February, Wednesday

    Time Temperature Precipitation Wind Pressure Humidity
    00:00 +5°C° 0 mm 7 mps 749 mmHg 62%
    01:00 +4°C° 0 mm 6 mps 748 mmHg 65%
    02:00 +4°C° 0 mm 6 mps 748 mmHg 67%
    03:00 +4°C° 0 mm 6 mps 747 mmHg 68%
    04:00 +3°C° 0 mm 6 mps 746 mmHg 69%
    05:00 +3°C° 0 mm 5 mps 746 mmHg 70%
    06:00 +3°C° 0 mm 5 mps 745 mmHg 69%
    07:00 +3°C° 0 mm 5 mps 745 mmHg 69%
    08:00 +3°C° 0 mm 5 mps 745 mmHg 69%
    09:00 +6°C° 0 mm 5 mps 744 mmHg 63%
    10:00 +8°C° 0 mm 5 mps 744 mmHg 57%
    11:00 +9°C° 0 mm 5 mps 743 mmHg 51%
    12:00 +12°C° 0 mm 5 mps 743 mmHg 48%
    13:00 +13°C° 0 mm 5 mps 742 mmHg 45%
    14:00 +14°C° 0 mm 5 mps 742 mmHg 42%
    15:00 +14°C° 0 mm 4 mps 741 mmHg 44%
    16:00 +14°C° 0 mm 4 mps 741 mmHg 45%
    17:00 +14°C° 0 mm 3 mps 740 mmHg 46%
    18:00 +13°C° 0 mm 4 mps 741 mmHg 51%
    19:00 +12°C° 0 mm 4 mps 741 mmHg 55%
    20:00 +11°C° 0 mm 4 mps 741 mmHg 60%
    21:00 +11°C° 0 mm 4 mps 741 mmHg 62%
    22:00 +10°C° 0 mm 4 mps 741 mmHg 65%
    23:00 +10°C° 0 mm 4 mps 741 mmHg 67%

    27 February, Thursday

    Time Temperature Precipitation Wind Pressure Humidity
    00:00 +10°C° 0 mm 4 mps 740 mmHg 70%
    01:00 +8°C° 0 mm 4 mps 740 mmHg 73%
    02:00 +8°C° 0 mm 4 mps 740 mmHg 75%
    03:00 +8°C° 0 mm 4 mps 739 mmHg 80%
    04:00 +7°C° 0 mm 4 mps 739 mmHg 85%
    05:00 +7°C° 0 mm 4 mps 739 mmHg 89%
    06:00 +7°C° 0 mm 4 mps 739 mmHg 88%
    07:00 +7°C° 0 mm 4 mps 739 mmHg 87%
    08:00 +8°C° 0 mm 3 mps 739 mmHg 85%
    09:00 +11°C° 0 mm 4 mps 740 mmHg 74%
    10:00 +13°C° 0 mm 5 mps 740 mmHg 63%
    11:00 +15°C° 0 mm 5 mps 740 mmHg 51%
    12:00 +15°C° 0 mm 5 mps 740 mmHg 47%
    13:00 +16°C° 0 mm 6 mps 740 mmHg 43%
    14:00 +17°C° 0 mm 6 mps 740 mmHg 38%
    15:00 +17°C° 0 mm 5 mps 740 mmHg 40%
    16:00 +17°C° 0 mm 4 mps 740 mmHg 41%
    17:00 +16°C° 0 mm 3 mps 741 mmHg 43%
    18:00 +14°C° 0 mm 3 mps 741 mmHg 51%
    19:00 +12°C° 0 mm 4 mps 742 mmHg 59%
    20:00 +11°C° 0 mm 4 mps 743 mmHg 68%
    21:00 +9°C° 0 mm 6 mps 743 mmHg 71%
    22:00 +8°C° 0 mm 7 mps 744 mmHg 74%
    23:00 +5°C° 0 mm 8 mps 744 mmHg 77%
    Show more